Location: Holmbach
(49.5093°N, 8.8411°E)
Time: 21:19:15
(UTC+00:00)

DELTA 2 DEB (DPAF) - Pass Details

Date: 17 June 2025
Orbit: 536 x 546 km, 98.3° (Epoch: 16 July)

Event Time Altitude Azimuth Distance (km) Brightness Sun altitude
Rises 21:17:01 0° 20° (NNE) 2,705 8.0 -11.7°
Reaches altitude 10° 21:19:14 10° 28° (NNE) 1,807 6.9 -11.8°
Maximum altitude 21:22:56 41° 99° (E) 792 4.3 -12.1°
Enters shadow 21:25:19 19° 161° (SSE) 1,312 5.1 -12.3°
